Regional Weather Roundup
Issued by NWS

Home | Current Version | Previous Version | Graphics & Text | Print | Product List | Glossary On
Versions: 1 2 3 4 5 6 7 8 9 10 11 12 13 14 15 16 17 18 19 20 21 22 23 24 25 26 27 28 29 30 31 32 33 34 35 36 37 38 39 40 41 42 43 44 45 46 47 48 49 50
000
ASUS43 KDTX 051501
RWRMI
MICHIGAN HOURLY REGIONAL WEATHER ROUNDUP
NATIONAL WEATHER SERVICE DETROIT/PONTIAC MI
1100 AM EDT THU MAY 05 2016

NOTE: "FAIR" INDICATES FEW OR NO CLOUDS BELOW 12,000 FEET WITH NO
SIGNIFICANT WEATHER AND/OR OBSTRUCTION TO VISIBILITY.

MIZ047>049-052>055-059>063-066>070-074>076-081>083-051600-
SOUTHEAST LOWER MICHIGAN

CITY           SKY/WX    TMP DP  RH WIND       PRES   REMARKS
ADRIAN         SUNNY     58  46  64 NE16G24   29.87R
ALMA           SUNNY     54  47  78 N8G17     29.94R
ANN ARBOR      SUNNY     58  45  62 N12       29.86R
BAD AXE        SUNNY     51  44  78 N12G17    29.92R
CARO           CLOUDY    50  46  85 N8G17     29.91S
DETROIT CITY   SUNNY     59  45  59 N15       29.86R
DETROIT        MOSUNNY   60  45  57 N15       29.86R
FLINT          CLOUDY    55  46  71 N14       29.91R
GROSSE ILE     SUNNY     59  48  67 NE9       29.84R
HILLSDALE      SUNNY     54  43  65 N9        29.87S
HOWELL         PTSUNNY   51  46  83 N8        29.90R

CITY           SKY/WX    TMP DP  RH WIND       PRES   REMARKS
JACKSON        SUNNY     55  46  71 N7        29.89R
LAMBERTVILLE   SUNNY     60  46  59 NE12G20   29.85R
LANSING        SUNNY     54  47  77 N8        29.91S
LAPEER         FAIR      55  45  69 NW8       29.89S
MASON          SUNNY     52  46  79 N7        29.91R
MONROE         SUNNY     59  46  63 N9        29.84S
MT. CLEMENS    SUNNY     59  47  65 NE13      29.85R
PONTIAC        MOSUNNY   56  45  66 N12       29.87R
PORT HOPE        N/A     47  43  86 N7        29.91R
PORT HURON     SUNNY     57  45  62 N13       29.87R
TRI CITIES     MOSUNNY   55  46  71 NE13      29.94R
MIDLAND        FAIR      55  45  67 NE6       29.93R
TROY           SUNNY     60  46  60 NE15      29.88R
SAGINAW HB     CLOUDY    50  45  81 NE12G18   29.93R
$$
MIZ043>046-050>051-056>058-064>065-071>073-077>080-051600-
SOUTHWEST LOWER MICHIGAN

CITY           SKY/WX    TMP DP  RH WIND       PRES   REMARKS
BATTLE CREEK   SUNNY     54  45  71 NW10      29.92R
BENTON HARBOR  CLOUDY    45  40  82 VRB6      29.97R
BIG RAPIDS     SUNNY     51  44  76 NE5       29.96S
COLDWATER      SUNNY     53  46  77 N10       29.90R
FREMONT        FAIR      52  44  75 N8        29.97S
HOLLAND        SUNNY    N/A N/A N/A NW7       29.97R
GRAND RAPIDS   SUNNY     57  45  64 N7        29.94S
IONIA          FAIR      55  44  68 NW3       29.92S
KALAMAZOO      SUNNY     55  45  68 N13       29.93R
LUDINGTON      SUNNY     53  43  70 N5        29.99S
MARSHALL       SUNNY     54  46  75 N3        29.90S
MOUNT PLEASANT SUNNY     55  46  73 N7        29.94R
MUSKEGON       SUNNY     55  42  61 N7        29.97S
$$
MIZ016>042-051600-
NORTHERN LOWER MICHIGAN

CITY           SKY/WX    TMP DP  RH WIND       PRES   REMARKS
ALPENA         SUNNY     56  44  64 N9        29.97R
BEAVER ISLAND  SUNNY     46  38  75 N5        30.00F
BELLAIRE       SUNNY     51  42  71 N5        30.00S
CADILLAC       CLOUDY    46  42  88 N7        29.97S
CHARLEVOIX     SUNNY     44  40  86 N7        30.03S
FRANKFORT      SUNNY     50  42  72 N5        30.00S
GAYLORD        PTSUNNY   49  43  80 CALM      29.97S
GRAYLING       CLOUDY    50  45  81 NW5       29.98S
HARBOR SPRINGS SUNNY     46  41  81 SW5       29.99S
HOUGHTON LAKE  CLOUDY    48  42  80 N7        29.97R
MANISTEE       SUNNY     48  39  71 NW9       30.00S
OSCODA         SUNNY     58  44  59 N9        29.93S
PELLSTON       SUNNY     51  43  74 VRB3      29.99S
ROGERS CITY    SUNNY     48  43  81 N9        30.00R
TRAVERSE CITY  MOSUNNY   47  40  76 NE6       30.00R
$$
MIZ007>008-015-051600-
EASTERN UPPER MICHIGAN

CITY           SKY/WX    TMP DP  RH WIND       PRES   REMARKS
KINROSS          N/A     52  43  71 N6        29.98S
MACKINAC ISLAN SUNNY     47  41  80 CALM      29.98F
NEWBERRY       SUNNY     49  37  64 NW7       29.99S
S. S. MARIE    SUNNY     51  41  68 W5        29.97S
MUNISING         N/A     42  33  70 NW10      30.03S
$$
MIZ004>006-011>014-085-051600-
CENTRAL UPPER MICHIGAN

CITY           SKY/WX    TMP DP  RH WIND       PRES   REMARKS
MANISTIQUE     SUNNY     49  36  59 N9        30.00F
ESCANABA       SUNNY     48  37  66 W6        30.02F
MENOMINEE      SUNNY     50  36  57 CALM      30.05S
SAWYER-GWINN   SUNNY     45  34  65 NE3       30.04S
$$
MIZ001>003-009>011-084-051600-
WESTERN UPPER MICHIGAN

CITY           SKY/WX    TMP DP  RH WIND       PRES   REMARKS
IRON MOUNTAIN  SUNNY     50  34  54 N5        30.01F
HOUGHTON       SUNNY     51  32  48 NW8       30.01S
COPPER HARBOR    N/A     42  35  76 E5        30.02R
IRONWOOD       SUNNY     54  32  43 SW8       29.99F
$$

ABBREVIATIONS USED IN REMARKS
   TC - TEMPERATURE IN CELSIUS
  WCI - WIND CHILL INDEX
   HX - HEAT INDEX
  VSB - VISIBILITY




USA.gov is the U.S. government's official web portal to all federal, state and local government web resources and services.